QPF
0.00 0.00 0.00 0.00 0.00 0.00 0.00 0.00 0.00 0.00 0.00 0.00 0.00 0.00 0.00 0.00 0.00 0.00 0.00 0.00 0.00 0.00 0.00 0.00 0.00 0.00 0.00 0.00 0.00 0.00 0.00 0.00 0.00 0.00 0.00 0.00 0.00 0.00 0.00 0.00 0.00 0.00 0.00 0.00 0.00
0.00 0.00 0.00 0.00 0.00 0.00 0.00 0.00 0.00 0.00 0.00 0.00 0.00 0.00 0.00 0.00 0.00 0.00 0.00 0.00 0.00 0.00 0.00 0.00 0.00 0.00 0.00 0.00 0.00 0.00 0.00 0.00 0.00 0.00 0.00 0.00 0.00 0.00 0.00 0.00 0.00 0.00 0.00 0.00 0.00
0.00 0.00 0.00 0.00 0.00 0.00 0.00 0.00 0.00 0.00 0.00 0.00 0.00 0.00 0.00 0.00 0.00 0.00 0.00 0.00 0.00 0.00 0.00 0.00 0.00 0.00 0.00 0.00 0.00 0.00 0.00 0.00 0.00 0.00 0.00 0.00 0.00 0.00 0.00 0.00 0.00 0.00 0.00 0.00 0.00
0.00 0.00 0.00 0.00 0.00 0.00 0.00 0.00 0.00 0.00 0.00 0.00 0.00 0.00 0.00 0.00 0.00 0.00 0.00 0.00 0.00 0.00 0.00 0.00 0.00 0.00 0.00 0.00 0.00 0.00 0.00 0.00 0.00 0.00 0.00 0.00 0.00 0.00 0.00 0.00 0.00 0.00 0.00 0.00 0.00
0.00 0.00 0.00 0.00 0.00 0.00 0.00 0.00 0.00 0.00 0.00 0.00 0.00 0.00 0.00 0.00 0.00 0.00 0.00 0.00 0.00 0.00 0.00 0.00 0.00 0.00 0.00 0.00 0.00 0.00 0.00 0.00 0.00 0.00 0.00 0.00 0.00 0.00 0.00 0.00 0.00 0.00 0.00 0.00 0.00
0.00 0.00 0.00 0.00 0.00 0.00 0.00 0.00 0.00 0.00 0.00 0.00 0.00 0.00 0.00 0.00 0.00 0.00 0.00 0.00 0.00 0.00 0.00 0.00 0.00 0.00 0.00 0.00 0.00 0.00 0.00 0.00 0.00 0.00 0.00 0.00 0.00 0.00 0.00 0.00 0.00 0.00 0.00 0.00 0.00
0.00 0.00 0.00 0.00 0.00 0.00 0.00 0.00 0.00 0.00 0.00 0.00 0.00 0.00 0.00 0.00 0.00 0.00 0.00 0.00 0.00 0.00 0.00 0.00 0.00 0.00 0.00 0.00 0.00 0.00 0.00 0.00 0.00 0.00 0.00 0.00 0.00 0.00 0.00 0.00 0.00 0.00 0.00 0.00 0.00
0.00 0.00 0.00 0.00 0.00 0.00 0.00 0.00 0.00 0.00 0.00 0.00 0.00 0.00 0.00 0.00 0.00 0.00 0.00 0.00 0.00 0.00 0.00 0.00 0.00 0.00 0.00 0.00 0.00 0.00 0.00 0.00 0.00 0.00 0.00 0.00 0.00 0.00 0.00 0.00 0.00 0.00 0.00 0.00 0.00
0.00 0.00 0.00 0.00 0.00 0.00 0.00 0.00 0.00 0.00 0.00 0.00 0.00 0.00 0.00 0.00 0.00 0.00 0.00 0.00 0.00 0.00 0.00 0.00 0.00 0.00 0.00 0.00 0.00 0.00 0.00 0.00 0.00 0.00 0.00 0.00 0.00 0.00 0.00 0.00 0.00 0.00 0.00 0.00 0.00
0.00 0.00 0.00 0.00 0.00 0.00 0.00 0.00 0.00 0.00 0.00 0.00 0.00 0.00 0.00 0.00 0.00 0.00 0.00 0.00 0.00 0.00 0.00 0.00 0.00 0.00 0.00 0.00 0.00 0.00 0.00 0.00 0.00 0.00 0.00 0.00 0.00 0.00 0.00 0.00 0.00 0.00 0.00 0.00 0.00
0.00 0.00 0.00 0.00 0.00 0.00 0.00 0.00 0.00 0.00 0.00 0.00 0.00 0.00 0.00 0.00 0.00 0.00 0.00 0.00 0.00 0.00 0.00 0.00 0.00 0.00 0.00 0.00 0.00 0.00 0.00 0.00 0.00 0.00 0.00 0.00 0.00 0.00 0.00 0.00 0.00 0.00 0.00 0.00 0.00
0.01 0.00 0.00 0.00 0.00 0.00 0.00 0.00 0.00 0.00 0.00 0.00 0.00 0.00 0.00 0.00 0.00 0.00 0.00 0.00 0.00 0.00 0.00 0.00 0.00 0.00 0.00 0.00 0.00 0.00 0.00 0.00 0.00 0.00 0.00 0.00 0.00 0.00 0.00 0.00 0.00 0.00 0.00 0.00 0.00
0.01 0.01 0.00 0.00 0.00 0.00 0.00 0.00 0.00 0.00 0.00 0.00 0.00 0.00 0.00 0.00 0.00 0.00 0.00 0.00 0.00 0.00 0.00 0.00 0.00 0.00 0.00 0.00 0.00 0.00 0.00 0.00 0.00 0.00 0.00 0.00 0.00 0.00 0.00 0.00 0.00 0.00 0.00 0.00 0.00
0.00 0.00 0.00 0.00 0.00 0.00 0.00 0.00 0.00 0.00 0.00 0.00 0.00 0.00 0.00 0.00 0.00 0.00 0.00 0.00 0.00 0.00 0.00 0.00 0.00 0.00 0.00 0.00 0.00 0.00 0.00 0.00 0.00 0.00 0.00 0.00 0.00 0.00 0.00 0.00 0.00 0.00 0.00 0.00 0.00
0.00 0.00 0.00 0.00 0.00 0.00 0.00 0.00 0.00 0.00 0.00 0.00 0.00 0.00 0.00 0.00 0.00 0.00 0.00 0.00 0.00 0.00 0.00 0.00 0.00 0.00 0.00 0.00 0.00 0.00 0.00 0.00 0.00 0.00 0.00 0.00 0.00 0.00 0.00 0.00 0.00 0.00 0.00 0.00 0.00
0.00 0.00 0.00 0.00 0.00 0.00 0.00 0.00 0.00 0.00 0.00 0.00 0.00 0.00 0.00 0.00 0.00 0.00 0.00 0.00 0.00 0.00 0.00 0.00 0.00 0.00 0.00 0.00 0.00 0.00 0.00 0.00 0.00 0.00 0.00 0.00 0.00 0.00 0.00 0.00 0.00 0.00 0.00 0.00 0.00
0.00 0.00 0.00 0.00 0.00 0.00 0.00 0.00 0.00 0.00 0.00 0.00 0.00 0.00 0.00 0.00 0.00 0.00 0.00 0.00 0.00 0.00 0.00 0.00 0.00 0.00 0.00 0.00 0.00 0.00 0.00 0.00 0.00 0.00 0.00 0.00 0.00 0.00 0.00 0.00 0.00 0.00 0.00 0.00 0.00
0.00 0.00 0.00 0.00 0.00 0.00 0.00 0.00 0.01 0.00 0.00 0.00 0.00 0.00 0.00 0.00 0.00 0.00 0.00 0.00 0.00 0.00 0.00 0.00 0.00 0.00 0.00 0.00 0.00 0.00 0.00 0.00 0.00 0.00 0.00 0.00 0.00 0.00 0.00 0.00 0.00 0.00 0.00 0.00 0.00
0.00 0.00 0.00 0.00 0.00 0.00 0.01 0.01 0.00 0.00 0.00 0.00 0.00 0.00 0.00 0.00 0.00 0.00 0.00 0.00 0.00 0.00 0.01 0.00 0.00 0.00 0.00 0.00 0.00 0.00 0.00 0.00 0.00 0.00 0.00 0.00 0.00 0.00 0.00 0.00 0.00 0.00 0.00 0.00 0.00
0.00 0.00 0.00 0.00 0.00 0.01 0.03 0.00 0.00 0.00 0.00 0.00 0.00 0.00 0.00 0.00 0.00 0.01 0.01 0.00 0.00 0.00 0.00 0.00 0.03 0.00 0.00 0.00 0.00 0.00 0.00 0.00 0.00 0.00 0.00 0.00 0.00 0.00 0.00 0.00 0.00 0.00 0.00 0.00 0.00
0.00 0.00 0.00 0.00 0.01 0.03 0.01 0.00 0.00 0.00 0.00 0.00 0.00 0.01 0.00 0.00 0.01 0.01 0.01 0.00 0.00 0.00 0.01 0.01 0.02 0.00 0.00 0.00 0.00 0.00 0.00 0.00 0.00 0.00 0.01 0.01 0.00 0.00 0.00 0.00 0.00 0.00 0.00 0.00 0.00
0.00 0.00 0.00 0.01 0.02 0.02 0.01 0.00 0.00 0.00 0.00 0.01 0.01 0.01 0.00 0.00 0.01 0.01 0.00 0.00 0.00 0.00 0.00 0.00 0.03 0.06 0.01 0.00 0.00 0.00 0.00 0.00 0.02 0.02 0.02 0.04 0.05 0.00 0.00 0.00 0.00 0.00 0.00 0.00 0.00
0.00 0.00 0.01 0.03 0.00 0.00 0.00 0.00 0.00 0.00 0.00 0.00 0.00 0.00 0.00 0.01 0.01 0.00 0.00 0.00 0.00 0.00 0.03 0.02 0.05 0.06 0.01 0.00 0.00 0.00 0.00 0.00 0.01 0.05 0.07 0.06 0.04 0.00 0.00 0.00 0.00 0.00 0.00 0.00 0.00
0.00 0.00 0.00 0.02 0.01 0.00 0.00 0.00 0.00 0.00 0.00 0.00 0.00 0.00 0.00 0.00 0.01 0.01 0.00 0.00 0.00 0.00 0.00 0.02 0.04 0.02 0.02 0.00 0.00 0.00 0.00 0.00 0.00 0.02 0.03 0.02 0.01 0.01 0.01 0.00 0.00 0.00 0.00 0.00 0.00
0.00 0.00 0.00 0.00 0.00 0.00 0.00 0.00 0.00 0.00 0.00 0.00 0.00 0.00 0.00 0.00 0.00 0.00 0.00 0.00 0.00 0.00 0.00 0.01 0.06 0.02 0.02 0.01 0.00 0.02 0.02 0.00 0.00 0.01 0.06 0.02 0.00 0.00 0.00 0.00 0.00 0.00 0.00 0.00 0.00
0.00 0.00 0.00 0.00 0.00 0.00 0.00 0.00 0.00 0.00 0.00 0.00 0.00 0.00 0.00 0.00 0.00 0.00 0.00 0.01 0.00 0.00 0.00 0.00 0.02 0.01 0.01 0.00 0.00 0.01 0.00 0.00 0.00 0.00 0.00 0.00 0.00 0.00 0.00 0.00 0.00 0.00 0.00 0.00 0.00
0.00 0.00 0.00 0.00 0.00 0.00 0.00 0.00 0.00 0.00 0.00 0.00 0.00 0.00 0.00 0.00 0.00 0.00 0.00 0.00 0.00 0.00 0.00 0.03 0.03 0.04 0.02 0.00 0.00 0.03 0.00 0.00 0.00 0.00 0.00 0.00 0.00 0.00 0.00 0.00 0.00 0.00 0.00 0.00 0.00
MSLP
1021.48 1021.35 1021.17 1021.08 1020.90 1020.77 1020.57 1020.43 1020.26 1020.09 1019.86 1019.65 1019.42 1019.10 1018.77 1018.54 1018.17 1017.86 1016.83 1015.80 1015.88 1016.41 1016.52 1016.86 1016.88 1016.83 1016.76 1016.71 1016.81 1016.63 1015.59 1014.70 1014.36 1014.27 1013.38 1013.80 1013.75 1013.93 1013.67 1013.16 1012.94 1012.58 1011.93 1011.73 1013.12
1021.50 1021.43 1021.23 1021.11 1020.87 1020.79 1020.58 1020.43 1020.25 1020.03 1019.83 1019.66 1019.42 1019.13 1018.88 1018.62 1017.96 1016.74 1015.48 1015.59 1015.79 1016.13 1016.24 1016.25 1016.45 1016.69 1016.45 1016.66 1016.74 1016.17 1015.40 1014.38 1014.24 1014.03 1013.62 1013.67 1013.79 1013.61 1013.45 1012.53 1011.87 1011.83 1011.60 1012.01 1012.90
1021.43 1021.28 1021.22 1021.12 1020.89 1020.68 1020.50 1020.33 1020.02 1019.81 1019.64 1019.51 1019.32 1019.04 1018.81 1018.52 1017.49 1015.41 1015.23 1015.53 1015.83 1016.06 1016.05 1016.30 1016.34 1016.44 1016.38 1016.56 1016.32 1016.04 1014.81 1014.31 1014.15 1014.06 1014.24 1013.91 1013.67 1013.63 1012.79 1011.51 1011.25 1011.08 1010.79 1011.11 1012.07
1021.30 1021.21 1021.07 1020.90 1020.78 1020.55 1020.31 1020.14 1019.89 1019.55 1019.35 1019.28 1019.15 1018.92 1018.61 1018.17 1016.84 1015.24 1015.15 1015.40 1015.84 1016.00 1016.16 1016.33 1016.37 1016.29 1016.20 1016.04 1015.97 1015.89 1014.93 1014.61 1014.08 1014.28 1014.42 1013.91 1013.39 1012.88 1012.52 1010.91 1010.58 1010.52 1010.67 1010.99 1011.00
1021.16 1021.07 1020.96 1020.77 1020.60 1020.41 1020.18 1019.89 1019.67 1019.41 1019.13 1018.97 1018.92 1018.82 1018.30 1017.71 1016.02 1015.57 1015.68 1015.86 1016.02 1016.08 1015.89 1016.01 1016.09 1016.10 1015.93 1015.99 1016.19 1015.84 1014.81 1014.53 1014.36 1014.46 1014.32 1013.98 1012.66 1012.53 1011.31 1011.06 1010.38 1010.21 1010.48 1010.43 1010.27
1020.98 1020.91 1020.79 1020.67 1020.45 1020.15 1019.88 1019.56 1019.25 1019.01 1018.78 1018.62 1018.66 1018.80 1018.29 1017.26 1015.47 1015.60 1015.94 1016.35 1016.15 1016.14 1016.06 1016.06 1015.73 1015.95 1015.84 1015.90 1016.00 1015.45 1015.13 1014.57 1014.39 1014.12 1014.06 1013.89 1012.00 1012.25 1010.37 1010.48 1010.05 1009.65 1009.40 1009.28 1009.31
1020.85 1020.83 1020.73 1020.57 1020.30 1019.97 1019.62 1019.29 1018.98 1018.66 1018.35 1018.16 1018.27 1018.36 1017.84 1015.96 1015.37 1015.72 1015.98 1016.24 1016.33 1016.18 1016.27 1016.48 1016.27 1016.12 1016.11 1015.90 1016.14 1015.83 1015.12 1014.07 1013.36 1013.50 1013.91 1013.78 1012.28 1011.08 1010.04 1010.38 1009.94 1009.13 1008.56 1008.31 1008.19
1020.76 1020.71 1020.59 1020.41 1020.13 1019.70 1019.27 1018.99 1018.67 1018.45 1018.25 1017.94 1018.18 1018.07 1016.61 1015.76 1015.71 1016.00 1016.06 1016.44 1016.62 1016.65 1016.61 1016.70 1016.58 1016.37 1016.35 1016.45 1016.10 1015.68 1015.37 1013.72 1012.38 1013.36 1013.63 1013.59 1011.39 1010.05 1010.28 1010.36 1009.63 1009.07 1008.27 1007.70 1007.33
1020.60 1020.59 1020.54 1020.31 1019.94 1019.42 1018.90 1018.60 1018.48 1018.31 1018.09 1018.23 1018.31 1017.68 1016.25 1016.20 1016.04 1016.13 1016.06 1016.09 1016.62 1016.91 1016.99 1016.97 1016.67 1016.46 1016.45 1015.95 1015.61 1015.06 1013.97 1013.27 1012.66 1012.75 1013.36 1013.53 1011.57 1010.64 1010.37 1010.33 1009.09 1008.34 1007.73 1007.52 1007.34
1020.45 1020.38 1020.28 1020.14 1019.85 1019.40 1018.69 1018.35 1018.34 1018.36 1018.31 1018.11 1017.72 1017.76 1015.87 1015.84 1016.09 1016.27 1016.35 1016.26 1016.45 1016.76 1016.95 1016.93 1016.81 1016.27 1016.18 1015.54 1014.20 1013.55 1013.43 1013.20 1012.99 1011.98 1012.67 1012.71 1011.89 1011.21 1010.22 1009.73 1008.63 1008.06 1007.56 1007.64 1007.04
1020.16 1020.14 1020.13 1019.92 1019.71 1019.38 1018.60 1018.35 1018.53 1018.37 1017.79 1017.26 1016.81 1016.29 1015.75 1016.08 1016.13 1016.40 1016.50 1016.47 1016.35 1016.52 1016.35 1016.85 1016.39 1015.29 1014.31 1014.20 1013.72 1013.96 1013.83 1013.32 1012.48 1012.49 1012.74 1011.52 1011.18 1010.65 1009.31 1008.80 1008.13 1007.61 1007.87 1007.53 1007.53
1019.87 1019.91 1019.92 1019.85 1019.67 1019.34 1018.98 1019.15 1019.89 1020.22 1018.37 1016.53 1016.19 1016.01 1015.65 1015.80 1016.11 1016.39 1016.60 1016.60 1016.52 1016.29 1016.80 1016.96 1015.46 1014.25 1014.54 1014.76 1014.66 1014.27 1013.94 1013.11 1012.70 1012.53 1012.98 1011.55 1010.76 1009.64 1008.88 1007.88 1007.64 1007.79 1007.71 1007.88 1008.26
1019.60 1019.72 1019.73 1019.80 1019.63 1019.51 1019.69 1019.98 1020.29 1020.16 1019.18 1016.56 1016.16 1015.97 1015.96 1015.89 1016.05 1016.48 1016.62 1016.38 1016.19 1016.28 1016.17 1015.40 1014.41 1014.68 1015.07 1015.00 1014.87 1014.43 1013.99 1013.07 1012.99 1013.01 1012.45 1011.84 1010.05 1009.30 1008.37 1008.06 1007.96 1007.85 1008.42 1008.92 1009.29
1019.41 1019.45 1019.57 1019.61 1020.08 1019.93 1019.89 1020.31 1020.56 1020.55 1018.80 1016.40 1015.93 1015.96 1016.00 1015.98 1016.37 1016.71 1016.63 1016.49 1016.31 1016.02 1016.17 1015.76 1015.34 1015.17 1015.43 1015.27 1014.92 1014.45 1013.97 1013.86 1013.61 1013.44 1012.38 1012.42 1008.78 1008.65 1007.69 1007.66 1008.15 1008.73 1009.12 1010.16 1010.84
1019.17 1019.33 1019.42 1019.42 1019.46 1019.79 1019.88 1020.39 1020.71 1020.40 1018.16 1016.19 1015.85 1016.03 1015.92 1016.18 1016.48 1016.74 1016.82 1016.17 1015.99 1015.91 1016.14 1014.70 1015.09 1015.39 1015.29 1014.87 1014.83 1014.29 1014.34 1014.57 1014.41 1013.55 1012.73 1012.00 1011.05 1007.95 1007.98 1008.02 1008.69 1010.01 1011.28 1012.07 1013.01
1019.28 1019.34 1019.51 1019.50 1019.51 1019.64 1019.82 1020.34 1020.63 1019.65 1016.74 1015.64 1015.57 1015.64 1015.58 1016.17 1016.68 1016.98 1016.75 1016.42 1016.46 1016.05 1015.82 1015.06 1015.59 1015.31 1014.57 1014.79 1014.83 1015.03 1014.92 1014.66 1014.76 1014.03 1011.88 1010.65 1010.61 1008.23 1008.46 1008.89 1010.08 1011.74 1013.07 1013.88 1014.28
1019.45 1019.52 1019.74 1019.16 1019.44 1019.79 1020.20 1019.98 1019.66 1018.20 1016.46 1014.97 1015.11 1015.52 1015.57 1016.01 1016.33 1016.28 1016.14 1016.15 1015.97 1015.56 1015.01 1014.61 1014.72 1014.73 1014.89 1014.91 1015.10 1015.33 1014.87 1014.40 1013.80 1013.24 1011.16 1010.72 1010.43 1008.50 1009.51 1010.66 1011.63 1012.71 1014.00 1014.45 1015.33
1019.45 1019.59 1019.60 1019.61 1019.60 1019.75 1019.97 1019.78 1018.59 1015.97 1015.47 1015.35 1014.90 1015.08 1015.44 1015.38 1015.80 1016.08 1015.89 1015.03 1015.27 1015.43 1014.59 1014.12 1013.34 1014.37 1014.53 1014.19 1013.77 1014.42 1014.14 1013.86 1013.00 1012.15 1011.03 1011.47 1009.18 1008.27 1010.42 1012.28 1013.49 1014.40 1015.20 1015.60 1015.64
1019.23 1019.54 1019.55 1019.07 1019.76 1020.26 1020.11 1019.24 1017.21 1016.04 1015.33 1015.43 1015.25 1014.82 1014.77 1015.43 1016.01 1015.95 1015.85 1015.39 1015.04 1014.90 1015.08 1014.36 1013.40 1014.01 1014.29 1014.29 1014.52 1014.60 1014.16 1013.53 1013.45 1013.03 1012.17 1010.22 1008.65 1008.53 1010.80 1013.26 1014.57 1015.63 1016.36 1016.78 1016.96
1019.70 1019.57 1019.31 1018.86 1019.16 1020.08 1020.36 1018.31 1017.32 1016.48 1015.78 1015.67 1015.47 1015.39 1015.29 1015.68 1016.15 1016.49 1015.99 1015.52 1015.16 1015.25 1015.33 1015.31 1015.12 1014.47 1014.43 1014.88 1014.59 1014.85 1014.02 1014.13 1013.97 1013.22 1011.89 1010.51 1009.66 1009.42 1011.67 1013.97 1015.45 1016.57 1017.22 1017.50 1017.45
1019.52 1019.59 1019.13 1019.26 1018.96 1019.55 1018.61 1017.53 1016.62 1016.04 1016.05 1016.19 1015.97 1015.63 1015.42 1015.93 1016.34 1016.24 1015.83 1015.59 1015.44 1015.34 1015.85 1015.77 1016.15 1014.51 1015.13 1014.38 1013.93 1014.28 1014.25 1014.21 1013.94 1013.48 1012.52 1011.34 1010.56 1011.81 1013.45 1015.45 1016.28 1017.22 1017.85 1018.18 1018.09
1019.20 1019.40 1018.96 1019.09 1019.41 1018.37 1017.71 1016.90 1016.69 1016.78 1016.77 1016.48 1016.35 1016.20 1016.01 1016.12 1016.26 1016.37 1015.73 1015.71 1015.81 1015.84 1016.12 1016.09 1016.32 1015.89 1014.50 1014.08 1014.09 1013.91 1013.95 1013.84 1013.62 1013.07 1012.56 1012.11 1011.56 1013.44 1014.76 1016.08 1016.91 1017.93 1018.34 1018.62 1018.48
1019.24 1019.22 1019.07 1018.91 1018.39 1017.60 1017.48 1016.99 1016.86 1016.71 1016.92 1016.90 1016.28 1016.41 1016.50 1016.93 1016.97 1016.08 1016.09 1016.07 1016.31 1016.48 1016.22 1016.66 1016.70 1016.27 1015.44 1014.85 1014.76 1014.48 1013.91 1013.92 1013.62 1013.83 1013.00 1012.79 1012.73 1014.67 1015.91 1016.44 1017.20 1017.43 1018.29 1018.68 1018.67
1019.56 1019.58 1019.33 1018.83 1017.97 1017.73 1017.64 1016.84 1016.91 1016.89 1017.01 1016.90 1016.36 1016.94 1017.14 1017.29 1017.42 1016.68 1016.43 1016.87 1017.02 1017.09 1017.36 1017.66 1017.19 1016.77 1016.19 1014.86 1014.39 1014.49 1014.46 1014.39 1014.65 1013.95 1013.44 1013.07 1012.53 1013.27 1015.27 1016.23 1016.77 1017.42 1017.91 1018.28 1018.21
1019.65 1019.49 1019.18 1018.71 1018.31 1018.24 1018.05 1017.44 1017.46 1017.52 1017.52 1017.08 1017.06 1017.30 1017.95 1018.04 1017.84 1017.71 1017.75 1018.00 1017.98 1017.99 1017.96 1018.07 1017.49 1017.00 1016.50 1016.24 1015.94 1015.22 1015.20 1014.98 1014.59 1014.59 1014.19 1013.43 1013.66 1013.79 1014.54 1015.91 1016.72 1017.17 1017.42 1017.67 1017.75
1019.89 1019.62 1019.89 1019.30 1019.06 1018.76 1018.88 1017.91 1017.87 1018.23 1018.68 1018.30 1018.40 1018.56 1018.84 1018.89 1019.18 1019.01 1019.29 1019.49 1019.02 1018.73 1018.74 1018.70 1017.93 1017.56 1016.68 1016.42 1016.11 1015.56 1015.13 1014.60 1014.71 1014.80 1014.56 1014.52 1013.78 1013.88 1015.63 1016.31 1016.72 1016.84 1016.97 1017.15 1017.40
1020.38 1020.08 1019.71 1019.96 1019.79 1019.41 1018.86 1018.60 1018.84 1019.10 1019.71 1019.90 1019.89 1019.80 1019.87 1020.07 1020.59 1020.65 1020.74 1020.74 1020.37 1020.05 1019.56 1019.67 1019.04 1018.38 1016.73 1017.00 1016.64 1015.72 1014.73 1015.06 1014.55 1014.15 1014.20 1014.18 1014.54 1015.62 1016.29 1016.55 1016.71 1016.91 1017.03 1017.02 1017.22
Thickness
5702 5703 5706 5707 5709 5711 5713 5714 5716 5718 5720 5722 5724 5726 5729 5730 5733 5734 5736 5747 5746 5741 5738 5733 5730 5728 5727 5720 5718 5717 5708 5704 5705 5702 5722 5724 5717 5718 5725 5724 5724 5729 5736 5745 5733
5697 5698 5700 5703 5705 5707 5709 5711 5713 5715 5717 5718 5721 5723 5725 5726 5730 5735 5747 5745 5743 5739 5734 5730 5722 5721 5718 5713 5712 5712 5704 5711 5717 5718 5719 5722 5716 5716 5715 5725 5725 5728 5737 5738 5729
5692 5695 5696 5698 5701 5704 5706 5708 5711 5713 5714 5715 5717 5719 5721 5723 5728 5740 5744 5741 5737 5734 5732 5727 5723 5718 5711 5710 5710 5707 5710 5719 5716 5718 5714 5714 5712 5714 5715 5721 5725 5726 5735 5738 5729
5688 5690 5692 5695 5696 5699 5702 5704 5707 5710 5711 5711 5713 5715 5718 5720 5709 5739 5739 5736 5731 5728 5724 5718 5713 5707 5704 5703 5708 5697 5712 5711 5717 5711 5706 5705 5714 5711 5712 5729 5735 5736 5736 5731 5729
5683 5684 5686 5689 5691 5693 5696 5699 5701 5703 5706 5707 5708 5710 5715 5714 5717 5729 5729 5727 5723 5721 5717 5712 5706 5702 5697 5699 5694 5692 5707 5708 5708 5704 5702 5702 5711 5705 5721 5725 5732 5733 5729 5725 5728
5676 5678 5680 5682 5685 5688 5691 5694 5697 5699 5701 5702 5702 5702 5709 5701 5724 5722 5720 5717 5718 5715 5710 5708 5707 5703 5698 5694 5688 5696 5694 5700 5701 5701 5695 5690 5715 5704 5729 5724 5726 5729 5731 5734 5733
5669 5671 5673 5675 5678 5681 5685 5689 5691 5694 5696 5698 5697 5698 5702 5714 5721 5716 5712 5711 5709 5708 5700 5699 5700 5694 5692 5686 5683 5680 5681 5697 5706 5698 5685 5683 5694 5704 5724 5716 5716 5728 5735 5738 5736
5662 5664 5667 5670 5673 5677 5682 5685 5688 5689 5691 5693 5690 5691 5704 5715 5711 5708 5706 5702 5700 5698 5695 5692 5690 5686 5683 5678 5673 5668 5665 5675 5713 5690 5678 5674 5686 5720 5715 5705 5712 5720 5728 5732 5735
5655 5657 5658 5661 5665 5670 5675 5679 5681 5682 5683 5681 5682 5684 5697 5704 5703 5700 5700 5697 5690 5686 5684 5683 5680 5674 5673 5668 5659 5664 5662 5670 5683 5695 5671 5659 5672 5704 5708 5698 5709 5717 5722 5723 5723
5648 5649 5650 5652 5655 5660 5667 5671 5671 5671 5672 5673 5675 5674 5690 5694 5692 5690 5689 5688 5682 5677 5672 5669 5663 5664 5660 5660 5654 5667 5663 5660 5657 5695 5674 5663 5659 5678 5695 5693 5701 5707 5712 5710 5714
5639 5640 5641 5644 5647 5650 5657 5661 5666 5667 5668 5674 5673 5674 5678 5676 5679 5678 5678 5676 5674 5670 5664 5654 5653 5659 5674 5669 5671 5656 5649 5647 5666 5671 5653 5670 5663 5669 5689 5695 5698 5701 5699 5702 5703
5630 5631 5632 5634 5636 5640 5643 5644 5640 5636 5651 5663 5663 5664 5667 5666 5664 5665 5667 5663 5660 5658 5646 5644 5646 5670 5657 5649 5644 5644 5636 5645 5652 5657 5638 5652 5656 5670 5677 5691 5694 5693 5693 5693 5690
5622 5621 5621 5622 5625 5627 5626 5626 5622 5624 5630 5655 5655 5651 5651 5654 5653 5652 5651 5650 5649 5641 5641 5651 5661 5651 5638 5640 5633 5636 5632 5642 5637 5636 5643 5634 5653 5655 5676 5676 5679 5683 5678 5677 5674
5611 5612 5610 5611 5610 5612 5616 5611 5610 5609 5631 5644 5642 5643 5641 5642 5641 5633 5636 5638 5634 5636 5628 5631 5635 5632 5625 5624 5630 5621 5638 5630 5624 5619 5623 5624 5637 5656 5666 5666 5661 5661 5661 5655 5650
5602 5600 5600 5600 5602 5602 5602 5597 5598 5602 5609 5628 5623 5625 5628 5631 5628 5625 5623 5628 5626 5623 5619 5637 5620 5615 5614 5623 5619 5626 5617 5609 5604 5610 5608 5617 5610 5655 5646 5647 5650 5639 5630 5623 5616
5589 5589 5589 5589 5590 5592 5591 5587 5587 5601 5594 5618 5617 5617 5619 5615 5610 5607 5610 5612 5607 5606 5604 5616 5604 5609 5622 5610 5609 5601 5602 5599 5590 5595 5610 5629 5615 5640 5641 5640 5635 5618 5605 5599 5599
5577 5577 5575 5580 5583 5579 5576 5582 5584 5575 5605 5615 5613 5606 5606 5602 5598 5602 5604 5602 5605 5601 5611 5607 5602 5602 5599 5600 5593 5590 5591 5589 5589 5589 5606 5607 5600 5632 5633 5621 5616 5606 5593 5587 5579
5563 5564 5563 5562 5564 5563 5564 5568 5561 5596 5602 5596 5597 5594 5597 5596 5592 5584 5590 5605 5595 5589 5595 5591 5601 5593 5592 5599 5603 5584 5589 5585 5567 5584 5598 5565 5599 5634 5613 5590 5577 5572 5568 5564 5567
5552 5551 5551 5553 5548 5544 5547 5549 5570 5581 5591 5586 5582 5582 5591 5579 5574 5572 5574 5586 5584 5581 5573 5578 5592 5580 5576 5577 5579 5568 5566 5579 5557 5553 5553 5592 5612 5627 5605 5568 5556 5548 5540 5536 5532
5535 5538 5541 5537 5538 5531 5527 5547 5558 5564 5566 5565 5563 5568 5566 5565 5556 5552 5554 5567 5567 5561 5557 5556 5542 5569 5564 5553 5557 5557 5562 5548 5545 5529 5535 5562 5579 5595 5589 5555 5536 5525 5519 5515 5512
5522 5526 5530 5520 5523 5521 5530 5543 5553 5556 5548 5542 5548 5549 5556 5546 5542 5538 5542 5553 5553 5552 5537 5538 5525 5556 5537 5552 5555 5546 5536 5532 5532 5529 5522 5524 5549 5560 5543 5513 5510 5501 5493 5489 5489
5511 5512 5514 5508 5505 5519 5525 5534 5536 5531 5528 5526 5529 5532 5534 5534 5529 5524 5530 5534 5537 5533 5526 5527 5506 5507 5538 5545 5532 5531 5528 5531 5518 5520 5529 5523 5528 5505 5497 5487 5481 5473 5470 5465 5462
5496 5495 5494 5495 5502 5512 5518 5522 5520 5522 5517 5515 5518 5521 5519 5512 5504 5520 5522 5524 5519 5515 5515 5507 5494 5499 5510 5522 5510 5508 5515 5516 5519 5494 5502 5502 5509 5479 5470 5468 5463 5467 5453 5445 5442
5477 5480 5479 5484 5499 5503 5505 5514 5512 5511 5506 5506 5512 5505 5501 5498 5499 5503 5507 5502 5496 5497 5489 5480 5480 5490 5492 5511 5513 5501 5498 5498 5490 5477 5490 5495 5505 5514 5473 5460 5452 5445 5439 5433 5429
5455 5464 5467 5477 5480 5480 5485 5498 5489 5488 5490 5491 5495 5493 5482 5479 5480 5483 5484 5475 5475 5469 5471 5465 5462 5475 5470 5470 5470 5472 5465 5473 5471 5464 5447 5476 5467 5480 5473 5435 5427 5421 5419 5415 5412
5442 5449 5444 5450 5454 5458 5459 5479 5475 5469 5464 5472 5468 5469 5461 5456 5457 5456 5452 5450 5453 5458 5451 5446 5438 5448 5442 5463 5452 5437 5452 5459 5451 5444 5438 5440 5443 5458 5408 5403 5403 5403 5400 5399 5395
5418 5423 5431 5427 5429 5436 5445 5452 5443 5441 5428 5426 5428 5433 5431 5432 5415 5413 5412 5412 5416 5416 5425 5416 5414 5418 5420 5434 5416 5398 5425 5428 5438 5452 5447 5431 5423 5380 5378 5381 5383 5379 5376 5376 5371